Погода Охотский Перевоз

Погода Охотский Перевоз : погода сейчас, прогноз погоды и архив. Всё, что Вы хотите узнать о погоде Охотский Перевоз!

Поиск расширенной информации на нашем сайте:

Другие новости

Новости СМИ2

Главная страница сайта

Новости сайта

02.10.2013

Напоминаем, что на нашем новом сайте вы можете получить высокодетализированные прогнозы погоды по пунктам России, СНГ и мира (включающие важные для авиации метеовеличины, такие как направление и скорость ветра, видимость, явления погоды, количество и форма облачности, нижняя и верхняя граница облачности), а также ознакомиться с разнообразными материалами по авиационной метеорологии и подборкой полезных ссылок на эту тему.

Сайт Метеоцентр.Азия посвящён разработке технологий оптимизации авиаметеорологического обслуживания, включая проектирование и перспективное создание нескольких автоматизированных авиаметеорологических систем:
- система выпуска высокодетальных прогностических карт явлений погоды для нижнего воздушного пространства по России и ближнему зарубежью;
- система верификации прогнозов TAF (выпускаемых синоптиками официальных АМСГ РФ и ближнего зарубежья) и AUTOTAF (выпускаемых сайтом Метеоцентр.Азия) - выявление ошибок, онлайн-сопоставление с фактической погодой METAR, автоматическое внесение коррективов в прогнозы при резком отклонении фактической погоды от прогноза, подсчёт оправдываемости прогнозов по элементам и в целом;
- система обработки, анализа и отображения авиаметеорологической информации для применения провайдерами метеорологической информации.

Рекомендуем: Парк отдыха веслево Платная рыбалка.

Погода Охотский Перевоз - сегодня

Время (UTC), дата Ветер
(°,м/с) 
Видим.   Явления Облачность Т
(°С)
Тd
(°С)
f(%) Тe
(°С)
Pmin
(гПа)
dP
(гПа)
Po
(мм)
O2
(г/м3)
Тmin Tmax R s Состояние
почвы
21 23.04.17 250 (З) 20000 м    8/8 600 м 
[Sc]
+4.6 -0.8 68 +5  1023.8  0.9  755  299  +2.7      11  мокрый или
старый снег
50-90% 
00 24.04.17 150 (ЮВ) 20000 м    4/4 600 м 
[Sc]
+7.2 -2.6 50 +7  1023.9  0.2  755  297           
03 24.04.17 170 (Ю) 20000 м    6/6 600 м 
[Cu med, cong]
+9.7 -2.1 44 +9  1023.3  -0.4  755  294           
06 24.04.17 100 (В) 20000 м    8/8 600 м кучево-дожд. 
[Cb calv]
+9 -2.1 46 +8  1022.6  -0.8  754  294           
09 24.04.17 тихо ()   20000 м    6/6 600 м кучево-дожд. 
[Cb calv]
+10.5 -2.6 40 +11  1021.6  -0.9  753  293    +11.1       
12 24.04.17 220 (ЮЗ) 10 км    6/6 1000 м 
[Sc diur, vesp]
+6.4 -4.2 47 +6  1022.1  0.3  754  297           
15 24.04.17 280 (З) 10 км    3/3 1000 м 
[Sc diur, vesp]
+0.6 -4.8 67 1022.5  754  303           
18 24.04.17 250 (З) 10 км    6/6 1000 м 
[Sc]
+1.3 -3.9 68 +1  1022.5  754  303           
21 24.04.17 230 (ЮЗ) 20000 м    9/9 1000 м верхняя 
[Sc|Ci fib]
+0.5 -3.5 75 +1  1022.8  0.3  754  304  -0.1      мокрый или
старый снег
50-90% 
00 25.04.17 170 (Ю) 20000 м    3/0 верхняя 
[Ci fib]
+4.4 -6.1 46 +4  1022.3  -0.2  754  299           
03 25.04.17 320 (СЗ) 20000 м    8/0 средняя 
[Ac und]
+8.4 -8.3 30 +8  1020.7  -1.4  753  295           
06 25.04.17 120 (ЮВ) 20000 м    5/3 1000 м средняя 
[Sc|Ac trans]
+7.4 -6.3 37 +8  1019.6  -1.1  752  296           
09 25.04.17 020 (С) 20000 м    8/3 1000 м средняя 
[Sc|As trans]
+8.8 -8.5 28 +10  1017.7  -1.8  750  294    +9.6       
12 25.04.17 330 (СЗ) 10 км    10/0 средняя 
[Ac As]
+4.6 -5.4 48 +5  1017.9  -0.1  750  298           
15 25.04.17 010 (С) 10 км    10/0 средняя 
[Ac As]
+1.4 -3.4 70 +2  1017.4  -0.7  750  301           
18 25.04.17 тихо ()   10 км    3/0 средняя 
[Ac trans]
-1.6 -4.5 81 -2  1015.4  -2.1  748  304           
21 25.04.17 190 (Ю) 20000 м    5/3 1000 м средняя 
[Sc|Ac trans]
-3.8 -4.6 94 -3  1013.5  -2  747  306  -3.8      мокрый или
старый снег
10-40% 
00 26.04.17 060 (СВ) 20000 м    5/4 600 м кучево-дожд., средняя 
[Cb cap|Ac trans]
+2.6 -1.9 72 +3  1012.7  -0.4  746  298           
03 26.04.17 040 (СВ) 20000 м    9/9 600 м кучево-дожд. 
[Cb calv]
+5.9 -3.4 51 +6  1010.7  -1.8  745  294           
06 26.04.17 230 (ЮЗ) 20000 м    9/9 600 м кучево-дожд. 
[Cb calv]
+5.7 -3.7 51 +7  1009  -1.6  744  294           
09 26.04.17 010 (С) 20000 м    3/3 600 м кучево-дожд. 
[Cb calv]
+5.4 -4.2 50 +5  1007.6  -1.5  743  294    +7.8       
12 26.04.17 160 (Ю) 10 км    ясно 
+0.6 -2.7 79 +1  1007.3  -0.5  742  299           
15 26.04.17 020 (С) 10 км    ясно 
-2.9 -3.6 95 -2  1006.6  -1  742  302           
18 26.04.17 тихо ()   10 км    ясно 
-5.5 -5.9 97 -6  1005.5  -1.2  741  305           
21 26.04.17 тихо ()   20000 м    ясно 
-6.9 -6.7 100 -7  1004.6  -1  740  307  -6.9      мокрый или
старый снег
10-40% 
Время (UTC), дата Ветер
(°,м/с) 
Видим.   Явления Облачность Т
(°С)
Тd
(°С)
f(%) Тe
(°С)
Pmin
(гПа)
dP
(гПа)
Po
(мм)
O2
(г/м3)
Тmin Tmax R s Состояние
почвы

Для получения пояснительной информации подведите курсор к названию столбца.

ПОГОДА Охотский Перевоз - архив

Всё, что Вы хотите узнать о погоде Охотский Перевоз - удобно и подробно!

Выберите нужную дату (начиная с 1 января 2015* года) и нажмите кнопку "Найти".
Будут отображены архивные сводки погоды по пункту Охотский Перевоз, начиная с указанной даты.


Отображать данные в формате CSV (для использования в таблицах Excel)


Внимание! Наш архив погоды предназначен исключительно для личного некоммерческого использования в познавательных целях. Если Вам необходимы официальные справки о состоянии погоды (для производственных, юридических, коммерческих и т.п. целей), обращайтесь в органы Росгидромета.

*Примечание: данная дата относится к архиву по метеостанциям СССР (Россия, СНГ, Балтия).
Архив по метеостанциям Зарубежной Европы и Азии (кроме Китая) хранится 10 дней, по другим регионам земного шара (Китай, Африка, Америка, Австралия, Океания) - 1 день.

Охотский Перевоз - район местоположения метеостанции


Название, широта, долгота, высота метеостанции:
Охотский Перевоз 61.9°ш. 135.5°д. 140 м над ур. моря [Российская Федерация]

Дополнительная информация

В oтличие oт бoльшинства пoгoдных сайтoв мы публикуем пoдрoбную метеoинфoрмацию в детальнoм прoфессиoнальнoм фoрмате.

Характеристики температуры и влажнoсти вoздуха измеряются на высoте 2 м в тени вдали oт зданий и деревьев.
Скoрoсть ветра измеряется на высoте 10 м (на урoвне рoста челoвека скoрoсть ветра ниже в 1.5-2 раза). Если метеoстанция нахoдится в гoрoде или в лесу, тo скoрoсть ветра занижена на 2-4 м/с пo сравнению с oткрытым местoм. Скoрoсть ветра над акватoриями крупных рек и oзёр, а также на вершинах хoлмoв на 2-5 м/с выше, чем в oбычных услoвиях.
Атмoсфернoе давление в разных тoчках местнoсти мoжет значительнo oтличаться oт давления на метеoстанции, в зависимoсти oт услoвий рельефа (при пoдъёме на 10 м давление пoнижается примернo на 1 мм рт.ст.).